• Join FlightAware (Why Join?)
  • Login
  • US Flag 
01:12PM EDT


 

Airport Tracker/Info


-or-


 

Live Flight TrackerFlight Track Log ✈ N680AN ✈ 28-Apr-2013 ✈ KDFW - KMIA

Flight Track Log - Related Links

Times and Time Zones

All times are in EDT time to prevent confusion due to time zone crossing. See the N680AN flight status page for this flight to view local times or setup timezone preferences in your user account.

Time Position Orientation Groundspeed Altitude Reporting Facility
EDT Latitude Longitude Course Direction KTS MPH feet Rate Location/Type
05:08PM 32.8833 -97.0333 77° East 168 193 1,500  Level Dallas / Fort Worth TRACON
05:09PM 32.8500 -97.0333 180° South 210 242 3,300 2,640 Climbing Dallas / Fort Worth TRACON
05:10PM 32.6862 -96.9475 103° East  Level FlightAware Approximate
05:10PM 32.7833 -97.0333 180° South 248 285 6,300  Level Dallas / Fort Worth TRACON
05:11PM 32.6833 -96.8031 90° East  Level FlightAware Approximate
05:11PM 32.7333 -96.9500 125° Southeast 293 337 9,600  Level Dallas / Fort Worth TRACON
05:12PM 32.7063 -96.6613 77° East  Level FlightAware Approximate
05:12PM 32.7442 -96.7958 85° East 320 368 12,700  Level Fort Worth Center
05:13PM 32.7327 -96.5199 77° East  Level FlightAware Approximate
05:13PM 32.7475 -96.6550 88° East 373 429 15,900  Level Fort Worth Center
05:14PM 32.7531 -96.5192 87° East 404 465 18,900 2,700 Climbing Fort Worth Center
05:15PM 32.7583 -96.3833 87° East 404 465 21,400 2,280 Climbing Fort Worth Center
05:16PM 32.7467 -96.2425 96° East 421 484 23,500 1,860 Climbing Fort Worth Center
05:17PM 32.7264 -96.0922 99° East 443 510 25,200 1,680 Climbing Fort Worth Center
05:18PM 32.7017 -95.9419 101° East 453 521 26,900 1,800 Climbing Fort Worth Center
05:19PM 32.6767 -95.7869 101° East 464 534 28,800 1,740 Climbing Fort Worth Center
05:20PM 32.6625 -95.6639 98° East 475 547 30,400 1,740 Climbing Fort Worth Center
05:21PM 32.6722 -95.4711 87° East 475 547 32,300 1,800 Climbing Fort Worth Center
05:22PM 32.6844 -95.3128 85° East 483 556 34,000 1,500 Climbing Fort Worth Center
05:23PM 32.6858 -95.1500 89° East 483 556 35,400 1,260 Climbing Fort Worth Center
05:24PM 32.6972 -94.9819 85° East 488 562 36,600 780 Climbing Fort Worth Center
05:25PM 32.7064 -94.8161 86° East 499 574 37,000 180 Climbing Fort Worth Center
05:26PM 32.6656 -94.6569 107° East 494 568 37,000  Level Fort Worth Center
05:27PM 32.6119 -94.5033 112° Southeast 494 568 37,000  Level Fort Worth Center
05:28PM 32.5581 -94.3497 113° Southeast 494 568 37,000  Level Fort Worth Center
05:29PM 32.5064 -94.1961 112° Southeast 499 574 37,000  Level Fort Worth Center
05:30PM 32.4542 -94.0431 112° Southeast 499 574 37,000  Level Fort Worth Center
05:31PM 32.4000 -93.8900 113° Southeast 499 574 37,000  Level Fort Worth Center
05:32PM 32.3497 -93.7347 111° Southeast 499 574 37,000  Level Fort Worth Center
05:33PM 32.2950 -93.5844 113° Southeast 499 574 37,000  Level Fort Worth Center
05:36PM 32.1825 -93.2664 113° Southeast 505 581 37,000  Level Houston Center
05:37PM 32.1281 -93.1114 112° Southeast 511 588 37,000  Level Houston Center
05:38PM 32.0667 -92.9406 113° Southeast 515 593 37,000  Level Houston Center
05:39PM 32.0111 -92.7853 113° Southeast 515 593 37,000  Level Houston Center
05:40PM 31.9419 -92.6378 119° Southeast 516 594 37,000  Level Houston Center
05:41PM 31.8483 -92.5147 132° Southeast 507 583 37,000  Level Houston Center
05:42PM 31.7556 -92.3925 132° Southeast 504 580 37,000  Level Houston Center
05:43PM 31.6611 -92.2697 132° Southeast 505 581 37,000  Level Houston Center
05:44PM 31.5469 -92.1222 132° Southeast 508 585 37,000  Level Houston Center
05:45PM 31.4567 -92.0067 132° Southeast 510 587 37,000  Level Houston Center
05:46PM 31.3611 -91.8828 132° Southeast 510 587 37,000  Level Houston Center
05:47PM 31.2669 -91.7639 133° Southeast 499 574 37,000  Level Houston Center
05:48PM 31.1550 -91.6211 132° Southeast 496 571 37,000  Level Houston Center
05:49PM 31.0600 -91.5014 133° Southeast 500 575 37,000  Level Houston Center
05:50PM 30.9650 -91.3797 132° Southeast 506 582 37,000  Level Houston Center
05:51PM 30.8689 -91.2578 133° Southeast 509 586 37,000  Level Houston Center
05:52PM 30.7708 -91.1350 133° Southeast 515 593 37,000  Level Houston Center
05:53PM 30.6625 -90.9994 133° Southeast 517 595 37,000  Level Houston Center
05:54PM 30.5656 -90.8769 133° Southeast 518 596 37,000  Level Houston Center
05:55PM 30.4672 -90.7553 133° Southeast 518 596 37,000  Level Houston Center
05:56PM 30.3692 -90.6325 133° Southeast 521 600 37,000  Level Houston Center
05:57PM 30.2503 -90.4856 133° Southeast 523 602 37,000  Level Houston Center
05:58PM 30.1519 -90.3639 133° Southeast 522 601 37,000  Level Houston Center
05:59PM 30.0531 -90.2419 133° Southeast 525 604 37,000 300 Level Houston Center
06:00PM 29.9544 -90.1197 133° Southeast 525 604 37,700 1,080 Climbing Houston Center
06:01PM 29.8561 -89.9997 133° Southeast 520 598 39,300 1,440 Climbing Houston Center
06:02PM 29.7469 -89.8536 131° Southeast 508 585 40,700 780 Climbing Houston Center
06:04PM 29.6575 -89.7308 130° Southeast 505 581 41,000 120 Climbing Houston Center
06:05PM 29.5669 -89.6086 130° Southeast 505 581 41,000  Level Houston Center
06:06PM 29.4756 -89.4828 130° Southeast 511 588 41,000  Level Houston Center
06:07PM 29.3822 -89.3589 131° Southeast 514 592 41,000  Level Houston Center
06:08PM 29.2911 -89.2336 130° Southeast 514 592 41,000  Level Houston Center
06:09PM 29.1797 -89.0861 131° Southeast 511 588 41,000  Level Houston Center
06:10PM 29.0864 -88.9614 131° Southeast 514 592 41,000  Level Houston Center
06:11PM 28.9942 -88.8386 131° Southeast 513 590 41,000  Level Houston Center
06:12PM 28.9011 -88.7150 131° Southeast 514 592 41,000  Level Houston Center
06:13PM 28.8081 -88.5922 131° Southeast 512 589 41,000  Level Houston Center
06:14PM 28.6972 -88.4425 130° Southeast 515 593 41,000  Level Houston Center
06:15PM 28.6039 -88.3186 131° Southeast 516 594 41,000  Level Houston Center
06:16PM 28.5394 -88.2369 132° Southeast 526 605 41,000  Level Jacksonville Center
06:17PM 28.4467 -88.1142 131° Southeast 526 605 41,000  Level Jacksonville Center
06:18PM 28.3667 -87.9731 123° Southeast 526 605 41,000  Level Jacksonville Center
06:19PM 28.3169 -87.8056 109° East 508 585 41,000  Level Jacksonville Center
06:20PM 28.2744 -87.6575 108° East 500 575 41,000  Level Jacksonville Center
06:21PM 28.2197 -87.5019 112° Southeast 473 544 41,000  Level Jacksonville Center
06:22PM 28.1769 -87.3564 108° East 528 608 41,000  Level Jacksonville Center
06:23PM 28.1294 -87.2131 111° Southeast 522 601 41,000  Level Jacksonville Center
06:24PM 28.0822 -87.0653 110° East 528 608 41,000  Level Jacksonville Center
06:25PM 28.0328 -86.9153 110° East 518 596 41,000  Level Jacksonville Center
06:26PM 27.9811 -86.7628 111° Southeast 512 589 41,000  Level Jacksonville Center
06:27PM 27.9333 -86.6153 110° East 495 570 41,000  Level Jacksonville Center
06:28PM 27.8875 -86.4728 110° East 490 564 41,000  Level Jacksonville Center
06:29PM 27.8392 -86.3303 111° Southeast 485 558 41,000  Level Jacksonville Center
06:30PM 27.7886 -86.1856 112° Southeast 476 548 41,000  Level Jacksonville Center
06:31PM 27.7403 -86.0386 110° East 476 548 41,000  Level Jacksonville Center
06:32PM 27.6872 -85.9011 114° Southeast 484 557 41,000  Level Jacksonville Center
06:33PM 27.6386 -85.7453 109° East 484 557 41,000  Level Jacksonville Center
06:34PM 27.5894 -85.6103 112° Southeast 484 557 41,000  Level Jacksonville Center
06:35PM 27.4939 -85.3369 111° Southeast 490 564 41,000  Level Miami Center
06:36PM 27.4519 -85.1983 109° East 490 564 41,000  Level Miami Center
06:37PM 27.3994 -85.0567 113° Southeast 479 551 41,000  Level Miami Center
06:38PM 27.3469 -84.9175 113° Southeast 479 551 41,000  Level Miami Center
06:39PM 27.3025 -84.7792 110° East 479 551 41,000  Level Miami Center
06:40PM 27.2497 -84.6403 113° Southeast 479 551 41,000  Level Miami Center
06:41PM 27.2028 -84.5017 111° Southeast 479 551 41,000  Level Miami Center
06:42PM 27.1536 -84.3633 112° Southeast 479 551 41,000  Level Miami Center
06:43PM 27.1067 -84.2253 111° Southeast 479 551 41,000  Level Miami Center
06:44PM 27.0572 -84.0869 112° Southeast 479 551 41,000  Level Miami Center
06:45PM 27.0078 -83.9511 112° Southeast 479 551 41,000 -540 Level Miami Center
06:46PM 26.9561 -83.8131 113° Southeast 479 551 40,000 -1,140 Descending Miami Center
06:47PM 26.9083 -83.6753 111° Southeast 479 551 38,800 -1,200 Descending Miami Center
06:48PM 26.8564 -83.5372 113° Southeast 479 551 37,600 -1,020 Descending Miami Center
06:49PM 26.8083 -83.4019 112° Southeast 479 551 36,800 -960 Descending Miami Center
06:50PM 26.7561 -83.2619 113° Southeast 479 551 35,700 -1,200 Descending Miami Center
06:51PM 26.7039 -83.1197 112° Southeast 485 558 34,400 -1,380 Descending Miami Center
06:52PM 26.6497 -82.9706 112° Southeast 497 572 33,000 -1,440 Descending Miami Center
06:53PM 26.5953 -82.8217 112° Southeast 513 590 31,600 -1,440 Descending Miami Center
06:54PM 26.5406 -82.6819 114° Southeast 504 580 30,200 -1,440 Descending Miami Center
06:55PM 26.4917 -82.5472 112° Southeast 480 552 28,800 -1,500 Descending Miami Center
06:56PM 26.4506 -82.4200 110° East 456 525 27,300 -1,620 Descending Miami Center
06:57PM 26.4200 -82.2864 104° East 450 518 25,600 -1,800 Descending Miami Center
06:58PM 26.3897 -82.1506 104° East 445 512 23,800 -1,800 Descending Miami Center
06:59PM 26.3625 -82.0336 105° East 439 505 22,100 -1,620 Descending Miami Center
07:00PM 26.3439 -81.9078 99° East 427 491 20,600 -1,860 Descending Miami Center
07:01PM 26.3250 -81.7886 100° East 402 463 18,400 -1,980 Descending Miami Center
07:02PM 26.2869 -81.6806 111° Southeast 382 440 16,700 -1,380 Descending Miami Center
07:03PM 26.2336 -81.5883 123° Southeast 361 415 15,700 -1,020 Descending Miami Center
07:04PM 26.1825 -81.4914 120° Southeast 361 415 14,700 -1,020 Descending Miami Center
07:05PM 26.1289 -81.3989 123° Southeast 361 415 13,700 -1,080 Descending Miami Center
07:06PM 26.0817 -81.3094 120° Southeast 350 403 12,600 -1,140 Descending Miami Center
07:07PM 26.0300 -81.2172 122° Southeast 350 403 11,500 -1,140 Descending Miami Center
07:08PM 25.9825 -81.1278 121° Southeast 350 403 10,400 -780 Descending Miami Center
07:09PM 25.9350 -81.0428 122° Southeast 345 397 10,000 -300 Descending Miami Center
07:10PM 25.9047 -81.0003 128° Southeast 312 359 10,000 -420 Level Miami Center
07:10PM 25.8911 -80.9628 112° Southeast 326 375 9,600 -1,140 Descending Miami Center
07:11PM 25.8817 -80.9278 107° East 279 321 9,000 -1,440 Descending Miami Center
07:11PM 25.8853 -80.8772 85° East 281 323 8,200 -1,500 Descending Miami Center
07:12PM 25.8906 -80.8381 81° East 284 327 7,500 -1,440 Descending Miami Center
07:12PM 25.8958 -80.7922 83° East 273 314 6,800 -1,440 Descending Miami Center
07:13PM 25.8994 -80.7414 85° East 273 314 5,900 -1,320 Descending Miami Center
07:13PM 25.8981 -80.7069 93° East 273 314 5,500 -1,320 Descending Miami Center
07:14PM 25.8931 -80.6581 96° East 266 306 4,600 -1,200 Descending Miami Center
07:14PM 25.8919 -80.6281 92° East 268 308 4,300 -840 Descending Miami Center
07:15PM 25.8847 -80.5839 100° East 239 275 3,800 -840 Descending Miami Center
07:15PM 25.8853 -80.5564 89° East 254 292 3,500 -600 Descending Miami Center
07:16PM 25.8781 -80.5169 101° East 216 249 3,200 -420 Descending Miami Center
07:16PM 25.8786 -80.4914 89° East 228 262 3,100 -240 Descending Miami Center